| time (UTC) | temp C | wind direction | speed KPH | gust KPH | rain 1hr cm | rain 24hr cm | rain mn cm | humidity % | barometer mb |
| 20260510193002 | 16 | 290 | 3.2 | 24.1 | 0.00 | 0.13 | 0.03 | 67 | 1011.9 |
| 20260510191601 | 16 | 278 | 4.8 | 22.5 | 0.00 | 0.13 | 0.03 | 66 | 1011.8 |
| 20260510190108 | 15 | 260 | 0.0 | 9.7 | 0.00 | 0.13 | 0.03 | 70 | 1012.0 |
| 20260510184609 | 15 | 277 | 3.2 | 11.3 | 0.00 | 0.36 | 0.03 | 72 | 1012.0 |
| 20260510183109 | 15 | 297 | 14.5 | 25.7 | 0.00 | 0.36 | 0.03 | 74 | 1012.0 |
| 20260510181615 | 16 | 289 | 6.4 | 16.1 | 0.00 | 0.36 | 0.03 | 70 | 1012.0 |
| 20260510180058 | 15 | 302 | 3.2 | 17.7 | 0.03 | 0.36 | 0.03 | 71 | 1012.2 |
| 20260510174603 | 15 | 330 | 3.2 | 29.0 | 0.03 | 0.48 | 0.03 | 78 | 1012.1 |
| 20260510173054 | 15 | 326 | 1.6 | 11.3 | 0.03 | 0.48 | 0.03 | 81 | 1012.1 |
| 20260510171617 | 14 | 290 | 1.6 | 12.9 | 0.03 | 0.48 | 0.03 | 79 | 1012.4 |
| 20260510170050 | 15 | 210 | 3.2 | 11.3 | 0.00 | 0.46 | 0.00 | 72 | 1012.3 |
| 20260510164557 | 15 | 109 | 0.0 | 20.9 | 0.00 | 0.53 | 0.00 | 77 | 1012.2 |
| 20260510163054 | 14 | 332 | 6.4 | 11.3 | 0.00 | 0.53 | 0.00 | 79 | 1012.2 |
| 20260510161544 | 15 | 210 | 1.6 | 4.8 | 0.00 | 0.53 | 0.00 | 78 | 1012.1 |
| 20260510160044 | 13 | 292 | 0.0 | 17.7 | 0.00 | 0.53 | 0.00 | 80 | 1012.2 |
| 20260510154543 | 14 | 288 | 6.4 | 12.9 | 0.00 | 0.56 | 0.00 | 76 | 1012.1 |
| 20260510153044 | 15 | 297 | 1.6 | 9.7 | 0.00 | 0.56 | 0.00 | 75 | 1011.8 |
| 20260510151541 | 15 | 103 | 0.0 | 1.6 | 0.00 | 0.56 | 0.00 | 75 | 1011.4 |
| 20260510150048 | 15 | 264 | 0.0 | 4.8 | 0.00 | 0.56 | 0.00 | 75 | 1011.4 |
| 20260510144545 | 15 | 352 | 0.0 | 1.6 | 0.00 | 0.56 | 0.00 | 77 | 1011.5 |
| 20260510143033 | 14 | 301 | 0.0 | 1.6 | 0.00 | 0.56 | 0.00 | 83 | 1011.6 |
| 20260510141531 | 12 | 12 | 1.6 | 3.2 | 0.00 | 0.56 | 0.00 | 86 | 1011.8 |
| 20260510140026 | 11 | 309 | 4.8 | 8.0 | 0.00 | 0.56 | 0.00 | 88 | 1011.8 |
| 20260510134523 | 11 | 330 | 6.4 | 11.3 | 0.00 | 0.56 | 0.00 | 90 | 1012.0 |
| 20260510133024 | 10 | 312 | 3.2 | 6.4 | 0.00 | 0.56 | 0.00 | 90 | 1012.0 |
| 20260510131517 | 10 | 309 | 4.8 | 6.4 | 0.00 | 0.56 | 0.00 | 91 | 1011.7 |
| 20260510130016 | 10 | 324 | 0.0 | 3.2 | 0.00 | 0.56 | 0.00 | 91 | 1011.8 |
| 20260510124511 | 9 | 323 | 1.6 | 3.2 | 0.00 | 0.56 | 0.00 | 92 | 1012.2 |
| 20260510123008 | 9 | 297 | 0.0 | 1.6 | 0.00 | 0.56 | 0.00 | 92 | 1012.1 |
| 20260510121507 | 8 | 357 | 0.0 | 1.6 | 0.00 | 0.56 | 0.00 | 92 | 1012.3 |
| 20260510120004 | 8 | 302 | 0.0 | 1.6 | 0.00 | 0.56 | 0.00 | 92 | 1012.2 |
| 20260510114508 | 8 | 296 | 0.0 | 0.0 | 0.00 | 0.56 | 0.00 | 92 | 1011.8 |
| 20260510113003 | 8 | 296 | 0.0 | 0.0 | 0.00 | 0.56 | 0.00 | 93 | 1012.1 |
| 20260510111601 | 8 | 296 | 0.0 | 3.2 | 0.00 | 0.56 | 0.00 | 93 | 1011.9 |
| 20260510104557 | 8 | 33 | 0.0 | 3.2 | 0.00 | 0.56 | 0.00 | 93 | 1011.6 |
| 20260510103057 | 8 | 290 | 0.0 | 3.2 | 0.00 | 0.56 | 0.00 | 93 | 1011.3 |
| 20260510101603 | 8 | 326 | 1.6 | 9.7 | 0.00 | 0.56 | 0.00 | 93 | 1010.8 |
| 20260510100054 | 7 | 293 | 3.2 | 8.0 | 0.00 | 0.56 | 0.00 | 93 | 1010.7 |
| 20260510094552 | 7 | 275 | 0.0 | 1.6 | 0.00 | 0.56 | 0.00 | 93 | 1010.5 |
| 20260510093048 | 7 | 23 | 0.0 | 0.0 | 0.00 | 0.56 | 0.00 | 93 | 1010.4 |
| 20260510091548 | 7 | 23 | 0.0 | 1.6 | 0.00 | 0.56 | 0.00 | 93 | 1010.3 |
| 20260510090048 | 7 | 23 | 0.0 | 0.0 | 0.00 | 0.56 | 0.00 | 93 | 1010.7 |
| 20260510084556 | 7 | 23 | 0.0 | 3.2 | 0.00 | 0.56 | 0.00 | 93 | 1010.7 |
| 20260510081544 | 7 | 304 | 1.6 | 4.8 | 0.00 | 0.56 | 0.00 | 93 | 1011.2 |
| 20260510080058 | 7 | 340 | 0.0 | 1.6 | 0.00 | 0.56 | 0.00 | 93 | 1011.0 |
| 20260510074541 | 7 | 318 | 0.0 | 3.2 | 0.00 | 0.56 | 0.00 | 93 | 1011.0 |
| 20260510073048 | 7 | 330 | 1.6 | 6.4 | 0.00 | 0.56 | 0.00 | 93 | 1010.9 |
| 20260510071540 | 7 | 209 | 0.0 | 8.0 | 0.00 | 0.56 | 0.00 | 93 | 1010.9 |
| 20260510070046 | 7 | 165 | 0.0 | 0.0 | 0.00 | 0.56 | 0.00 | 93 | 1011.1 |
| 20260510064543 | 7 | 159 | 0.0 | 0.0 | 0.00 | 0.56 | 0.00 | 93 | 1011.2 |
| 20260510063038 | 7 | 159 | 0.0 | 0.0 | 0.00 | 0.56 | 0.00 | 93 | 1011.2 |
| 20260510061534 | 7 | 159 | 0.0 | 0.0 | 0.00 | 0.56 | 0.00 | 93 | 1011.5 |
| 20260510060040 | 7 | 159 | 0.0 | 0.0 | 0.00 | 0.56 | 0.00 | 93 | 1011.4 |
| 20260510054532 | 7 | 159 | 0.0 | 0.0 | 0.00 | 0.56 | 0.00 | 93 | 1011.4 |
| 20260510053034 | 7 | 159 | 0.0 | 0.0 | 0.00 | 0.56 | 0.00 | 93 | 1011.5 |
| 20260510051530 | 7 | 159 | 0.0 | 0.0 | 0.00 | 0.56 | 0.00 | 92 | 1011.5 |
| 20260510050036 | 7 | 159 | 0.0 | 0.0 | 0.00 | 0.56 | 0.00 | 92 | 1011.9 |
| 20260510044528 | 7 | 159 | 0.0 | 0.0 | 0.00 | 0.56 | 0.00 | 93 | 1011.7 |
| 20260510043029 | 7 | 159 | 0.0 | 0.0 | 0.00 | 0.56 | 0.00 | 92 | 1011.7 |
| 20260510041527 | 7 | 159 | 0.0 | 0.0 | 0.00 | 0.56 | 0.00 | 92 | 1011.7 |
| 20260510040023 | 7 | 159 | 0.0 | 1.6 | 0.00 | 0.56 | 0.00 | 92 | 1011.7 |
| 20260510034524 | 7 | 107 | 0.0 | 1.6 | 0.00 | 0.56 | 0.56 | 92 | 1011.8 |
| 20260510033024 | 7 | 120 | 0.0 | 1.6 | 0.00 | 0.56 | 0.56 | 93 | 1011.7 |
| 20260510031525 | 7 | 291 | 0.0 | 1.6 | 0.00 | 0.56 | 0.56 | 92 | 1011.9 |
| 20260510030021 | 7 | 99 | 0.0 | 1.6 | 0.00 | 0.56 | 0.56 | 92 | 1012.0 |
| 20260510024522 | 7 | 136 | 0.0 | 1.6 | 0.00 | 0.56 | 0.56 | 92 | 1012.0 |
| 20260510023021 | 7 | 81 | 0.0 | 1.6 | 0.00 | 0.56 | 0.56 | 92 | 1012.2 |
| 20260510021548 | 7 | 79 | 0.0 | 1.6 | 0.00 | 0.56 | 0.56 | 92 | 1012.4 |
| 20260510020019 | 7 | 108 | 0.0 | 1.6 | 0.00 | 0.56 | 0.56 | 92 | 1012.3 |
| 20260510014531 | 7 | 97 | 0.0 | 1.6 | 0.00 | 0.56 | 0.56 | 92 | 1012.4 |
| 20260510013018 | 7 | 138 | 0.0 | 1.6 | 0.00 | 0.56 | 0.56 | 92 | 1012.4 |
| 20260510011518 | 7 | 82 | 0.0 | 1.6 | 0.00 | 0.56 | 0.56 | 92 | 1012.5 |
| 20260510010029 | 7 | 123 | 0.0 | 0.0 | 0.00 | 0.56 | 0.56 | 92 | 1012.5 |
| 20260510004520 | 7 | 134 | 0.0 | 0.0 | 0.00 | 0.56 | 0.56 | 92 | 1012.4 |
| 20260510003019 | 7 | 294 | 0.0 | 1.6 | 0.00 | 0.56 | 0.56 | 92 | 1012.2 |
| 20260510001516 | 7 | 293 | 0.0 | 1.6 | 0.00 | 0.56 | 0.56 | 92 | 1012.0 |
| 20260510000016 | 7 | 294 | 0.0 | 0.0 | 0.00 | 0.56 | 0.56 | 92 | 1011.8 |
| 20260509234518 | 7 | 293 | 0.0 | 1.6 | 0.00 | 0.56 | 0.56 | 92 | 1011.7 |
| 20260509233014 | 7 | 156 | 0.0 | 0.0 | 0.00 | 0.56 | 0.56 | 92 | 1011.6 |
| 20260509231514 | 7 | 132 | 0.0 | 1.6 | 0.00 | 0.56 | 0.56 | 92 | 1011.6 |
| 20260509230022 | 7 | 132 | 0.0 | 0.0 | 0.00 | 0.56 | 0.56 | 92 | 1011.7 |
| 20260509224511 | 7 | 132 | 0.0 | 1.6 | 0.00 | 0.56 | 0.56 | 92 | 1011.8 |
| 20260509223011 | 7 | 132 | 0.0 | 0.0 | 0.00 | 0.56 | 0.56 | 92 | 1011.8 |
| 20260509221511 | 7 | 132 | 0.0 | 1.6 | 0.00 | 0.56 | 0.56 | 92 | 1011.9 |
| 20260509220008 | 7 | 99 | 0.0 | 0.0 | 0.00 | 0.56 | 0.56 | 92 | 1012.0 |
| 20260509214508 | 7 | 99 | 0.0 | 1.6 | 0.00 | 0.56 | 0.56 | 92 | 1012.2 |
| 20260509213010 | 7 | 99 | 0.0 | 0.0 | 0.00 | 0.56 | 0.56 | 91 | 1012.2 |
| 20260509211509 | 7 | 99 | 0.0 | 0.0 | 0.03 | 0.56 | 0.56 | 91 | 1012.2 |
| 20260509210006 | 7 | 112 | 0.0 | 3.2 | 0.03 | 0.56 | 0.56 | 91 | 1012.1 |
| 20260509204505 | 7 | 112 | 0.0 | 1.6 | 0.03 | 0.56 | 0.56 | 91 | 1012.1 |
| 20260509203004 | 7 | 103 | 0.0 | 3.2 | 0.03 | 0.56 | 0.56 | 91 | 1012.2 |
| 20260509201510 | 7 | 118 | 0.0 | 3.2 | 0.03 | 0.53 | 0.53 | 91 | 1012.2 |
| 20260509200002 | 7 | 99 | 0.0 | 1.6 | 0.05 | 0.53 | 0.53 | 91 | 1012.4 |
| 20260509194502 | 7 | 156 | 0.0 | 0.0 | 0.10 | 0.53 | 0.53 | 91 | 1012.3 |